RS-38S
1 57189U 23091Z   26194.52424067  .00009635  00000-0  26974-3 0  9991
2 57189  97.5086 264.5504 0005801 346.5106  13.5982 15.36840572168736
SONATE-2
1 59112U 24043Q   26194.37823607  .00027473  00000-0  33131-3 0  9996
2 59112  97.5541 346.4234 0006950 111.8848 248.3148 15.60724269131971
GRBBeta
1 60237U 24128C   26194.23501684  .00001948  00000-0  14278-3 0  9993
2 60237  61.9896 124.8657 0037305 140.2081 220.1759 15.06800912110196
Curium One
1 60242U 24128H   26194.47916998  .00004123  00000-0  24249-3 0  9990
2 60242  61.9788 112.6284 0036700 135.9350 224.4681 15.12851567110438
ROBUSTA-3A
1 60243U 24128J   26194.32672485  .00004545  00000-0  27208-3 0  9991
2 60243  61.9864 115.7855 0038243 133.5898 226.8383 15.11970668110378
CatSat
1 60246U 24125J   26193.66510626  .00052518  00000-0  59540-3 0  9992
2 60246  97.2063  46.5546 0020726  92.0913 268.2719 15.61960038111364
HYPERVIEW-1G (RS66S)
1 61772U 24199AP  26194.59972327  .00168570  00000-0  71648-3 0  9990
2 61772  97.2815  75.8124 0008237 151.4421 208.7302 15.84791404138841
AO-123
1 61781U 24199AY  26194.61685320  .00004586  00000-0  13267-3 0  9996
2 61781  97.2968  63.0515 0012836 206.6182 153.4404 15.36039311137982
JINJUSat 1B
1 63210U 25052A   26194.17468450  .00010553  00000-0  31992-3 0  9994
2 63210  97.3979  90.9756 0003457  33.9835 326.1629 15.34312050 74086
NUSHSAT 1
1 63211U 25052B   26194.63060728  .00012255  00000-0  34065-3 0  9997
2 63211  97.3950  92.0932 0003355  43.1993 316.9514 15.37001513 74206
TEVEL2-4
1 63213U 25052D   26194.64747267  .00011283  00000-0  32889-3 0  9992
2 63213  97.3876  91.0958 0003679  54.9204 305.2385 15.35531702 74175
TEVEL2-5
1 63214U 25052E   26194.14966326  .00011850  00000-0  34745-3 0  9990
2 63214  97.3876  90.5369 0003789  56.8499 303.3107 15.35333367 74094
TEVEL2-6
1 63215U 25052F   26193.70635362  .00012019  00000-0  35290-3 0  9999
2 63215  97.3879  90.0772 0003782  60.8657 299.2965 15.35286778 74026
TEVEL2-1
1 63217U 25052H   26193.67932412  .00011444  00000-0  34224-3 0  9990
2 63217  97.3853  89.6437 0004433  65.2904 294.8800 15.34718554 74008
TEVEL2-3
1 63218U 25052J   26194.65094920  .00010730  00000-0  32020-3 0  9992
2 63218  97.3853  90.6416 0004147  64.5751 295.5921 15.34803352 74151
TEVEL2-2
1 63219U 25052K   26194.65746567  .00010878  00000-0  32511-3 0  9992
2 63219  97.3847  90.6260 0004426  63.9557 296.2141 15.34751821 74154
TEVEL2-9
1 63237U 25052AD  26194.14738760  .00010512  00000-0  33505-3 0  9991
2 63237  97.3915  89.4327 0007832  62.8126 297.3913 15.32691499 74009
TEVEL2-7
1 63238U 25052AE  26194.65055022  .00009367  00000-0  30172-3 0  9994
2 63238  97.3910  89.8399 0007866  61.2013 299.0017 15.32385883 74071
TEVEL2-8
1 63239U 25052AF  26194.65905755  .00009789  00000-0  31532-3 0  9991
2 63239  97.3909  89.8240 0007939  61.9516 298.2528 15.32371934 74071
SPIRONE
1 66657U 25274H   26194.58349723  .00000760  00000-0  77318-4 0  9996
2 66657  97.7475 123.4987 0010483 289.7430  70.2659 14.93649069 34168
K-HERO
1 66660U 25274L   26194.37987305  .00000689  00000-0  69843-4 0  9995
2 66660  97.7483 123.4784 0012423 294.7985  65.1943 14.94057829 34148
SNUGLITE-III DURI
1 66661U 25274M   26194.36704722  .00000894  00000-0  88959-4 0  9992
2 66661  97.7481 123.4864 0013023 295.8806  64.1071 14.94088196 34149
SAKHACUBE-CHOLBON
1 67290U 25313AU  26194.14214962  .00006331  00000-0  25382-3 0  9995
2 67290  97.3930 268.8588 0007656 259.7002 100.3373 15.25339665 29936
RS95S (QMR-KWT-2)
1 67291U 25313AV  26194.17036216  .00008383  00000-0  31937-3 0  9995
2 67291  97.3928 269.1199 0007417 255.5294 104.5122 15.26943654 29958
Ten-Koh2
1 68261U 25241B   26194.31048175  .00002520  00000-0  11581-3 0  9996
2 68261  51.6592 195.2806 0004575 223.7654 136.2962 15.24162225 18899
JACK-002
1 68417U 26067B   26194.43595242  .00003898  00000-0  18578-3 0  9993
2 68417  97.4579 152.7097 0002864 137.7183 222.4273 15.19701229 15937
DISCO 2
1 68431U 26067R   26194.46198067  .00004241  00000-0  20327-3 0  9994
2 68431  97.4610 152.7244 0000388 169.2339 190.8904 15.19454991 15935
HADES-SA (SpinnyONE)
1 68446U 26067AG  26194.43111462  .00010969  00000-0  51268-3 0  9993
2 68446  97.4412 152.3520 0006248   9.6807 350.4548 15.19944702 15912
PARUS-6U1
1 68456U 26067AS  26194.42982832  .00003391  00000-0  17114-3 0  9993
2 68456  97.4565 152.3965 0004939 355.0714   5.0470 15.17782895 15913
SAL-E
1 68458U 26067AU  26194.35432323  .00004597  00000-0  22854-3 0  9998
2 68458  97.4489 152.2437 0005533   5.8807 354.2491 15.18123958 15908
FSI-SAT 2
1 68792U 26088A   26194.38154105  .00001819  00000-0  12522-3 0  9999
2 68792  97.5087 342.9902 0014709  23.7300 336.4603 15.07030401 12239
OrigamiSat 2
1 68795U 26088D   26194.35448014  .00006983  00000-0  44089-3 0  9994
2 68795  97.5095 343.1830 0014311 353.4749   6.6292 15.09300900 12240
ARICA 2
1 68796U 26088E   26194.36239163  .00002730  00000-0  17808-3 0  9994
2 68796  97.5086 343.1584 0015194 354.2198   5.8853 15.08621968 12247
WASEDA-SAT-ZERO-II
1 68797U 26088F   26194.35366026  .00003451  00000-0  22225-3 0  9993
2 68797  97.5084 343.1678 0014909 353.8181   6.2862 15.08919334 12242
MANGARO-II-Piscus
1 68798U 26088G   26194.40885696  .00001886  00000-0  12301-3 0  9993
2 68798  97.5097 343.2578 0018634 356.2731   3.8356 15.08961290 12254
IO-86
1 40931U          25360.30710720  .00000000  00000-0  12800-3 0    00
2 40931   6.0006 332.5373 0012733 338.8432   8.1437 14.79075515    01
LILIUM-4                
1 71922C 26067AC  26089.50133053 -.00014632  00000+0 -74472-3 0    04
2 71922  97.4497  49.1617 0004341   5.9603 355.7042 15.16896692    16
